Showing default

ORBCOMM FM 105, 41181

Orbit data source: Space-Track

ORBCOMM FM 105, 41181 is a payload satellite owned by Orbcomm (US) in LEO that was launched on Tue, 22 Dec 2015 UTC via an FALCON 9 launch vehicle from the Air Force Eastern Test Range (AFETR). Payload-class satellites include a variety of spacecraft equipped with specific instruments for various scientific and technological missions. These include communications satellites like Starlink; space stations such as the ISS; scientific satellites like the Hubble; Earth observation satellites from companies like Planet Labs, Umbra, and HawkEye 360; GPS; miniature CubeSats for education and research; and military/defense satellites.

Loading next visibility...
Identifier
41181, 2015-081C
Orbit
LEO
Country
Flag of USUS / ORB
Related business
Manufacturer
SNC Louisville
Mission
Non-operational Commercial Communications
Bus & Motor
SN-100A, Unknown motor
Mass
172 kg wet, 158 kg dry
Launch date (UTC)
2015-12-22 (11 years ago)
Launch vehicle
FALCON 9
Launch site
Air Force Eastern Test Range (AFETR)
Object type
Payload
Rocket body
Debris
Shape & HBR
Box + 1 Pan + 1 Ant, 5.3 m
Radar Cross Section
2.222 m², Medium (>0.1 m² and < 1m²)

Expand to show TLE details & history
Last TLE update: 1 day ago

TLE from 1 day ago
0 ORBCOMM FM 105
1 41181U 15081C   26262.54828567  .00000053  00000-0  59148-4 0  9992
2 41181  47.0005 235.4907 0002351 242.7023 117.3618 14.45603412567201
Epoch: 2026-09-19T13:09Z
TLE epoch observation values (Epoch: 2026-09-19T13:09:31.881Z)
Latitude
-0.00005°
Longitude
39.65258°
Altitude
741.028 km
Speed
7.485 km/s
True Right ascension
15h 41m 57s
True Declination
0° 00' 00"
Sunlit
Object was in daylight at epoch
Visualization orbit readout
Latitude
Unknown
Longitude
Unknown
Altitude
Unknown
Speed
Unknown
Apparent Right ascension
Unknown
Apparent Declination
Unknown
Sunlit
N/A
Visualization observer readout
Local Sidereal Time
06:23:14
Azimuth
Unknown
Elevation
Unknown
Doppler factor
Unknown
Orbital elements
Apogee altitude
742.946 km
Perigee altitude
739.598 km
Semi-major axis
7,119.409 km
Eccentricity
0.00024
Inclination
47.0005°
RAAN
235.4907°
Arg. of periapsis
242.7023°
True anomaly
117.38572°
Mean anomaly
117.3618°
Eccentric anomaly
117.37376°
Mean motion
3.61308 °/min
Orbital period
99.64 mins
BSTAR
0.000059148
Loading maneuver chart data...
Computing Atmospheric mass density...
Loading historical data...
Loading historical data...
Loading historical data...
Loading historical data...
Loading historical data...
Loading historical data...
Loading historical data...

Documentation

Showing up to 5 results
|